CZ-5 R/B, 59021

Orbit data source: Space-Track

CZ-5 R/B, 59021 is space debris in HEO originally from a launch on Fri, 23 Feb 2024 UTC launched from the Wenchang Satellite Launch Center (WSC). Debris objects in space refer to the collection of defunct objects orbiting the Earth. Examples of debris include non-operational satellites, rocket bodies, and fragments generated from explosions, collisions, or faulty payload assembly.

Loading next visibility...
Identifier
59021, 2024-037B
Orbit
HEO
Country
Flag of CNCN / PRC
Related business
Manufacturer
CALT
Mission
Spacecraft
Bus & Motor
CZ-5 H5-2, Unknown motor
Mass
5,100 kg wet, 5,100 kg dry
Launch date (UTC)
2024-02-23 (2 years ago)
Launch vehicle
Unknown
Launch site
Wenchang Satellite Launch Center (WSC)
Object type
Payload
Rocket body
Debris
Shape & HBR
Step Cyl, 5.3 m
Radar Cross Section
46.821 m², Large (>1 m²)

Expand to show TLE details & history
Last TLE update: 1 day ago

TLE from 1 day ago
0 CZ-5 R/B
1 59021U 24037B   26145.20682916  .00002525  00000-0  63358-3 0  9997
2 59021  16.4918 330.9837 7029751 171.6560 213.4271  2.60132963 20798
Epoch: 2026-05-25T04:57Z
TLE epoch observation values (Epoch: 2026-05-25T04:57:50.039Z)
Latitude
-0.00004°
Longitude
13.71428°
Altitude
30,702.391 km
Speed
1.911 km/s
True Right ascension
22h 03m 52s
True Declination
0° 00' 00"
Sunlit
Object was in daylight at epoch
Visualization orbit readout
Latitude
Unknown
Longitude
Unknown
Altitude
Unknown
Speed
Unknown
Apparent Right ascension
Unknown
Apparent Declination
Unknown
Sunlit
N/A
Visualization observer readout
Local Sidereal Time
19:47:40
Azimuth
Unknown
Elevation
Unknown
Doppler factor
Unknown
Orbital elements
Apogee altitude
31,661.865 km
Perigee altitude
256.621 km
Semi-major axis
22,337.38 km
Eccentricity
0.70298
Inclination
16.4918°
RAAN
330.9837°
Arg. of periapsis
171.656°
True anomaly
188.3334°
Mean anomaly
213.4271°
Eccentric anomaly
199.79012°
Mean motion
0.65012 °/min
Orbital period
553.74 mins
BSTAR
0.00063358
Loading maneuver chart data...
Computing Atmospheric mass density...
Loading historical data...
Loading historical data...
Loading historical data...
Loading historical data...
Loading historical data...
Loading historical data...
Loading historical data...
Other satellites on launch #37 in the year 2024 (2024-02-23 UTC)

Documentation

Showing up to 5 results
|